Regional Weather Roundup
Issued by NWS

Home | Current Version | Previous Version | Text Only | Print | Product List | Glossary On
Versions: 1 2 3 4 5 6 7 8 9 10 11 12 13 14 15 16 17 18 19 20 21 22 23 24 25 26 27 28 29 30 31 32 33 34 35 36 37 38 39 40 41 42 43 44 45 46 47 48 49 50
000
ASUS43 KDMX 310707
RWRIA

WEATHER ROUNDUP FOR IOWA
NATIONAL WEATHER SERVICE DES MOINES IA
200 AM CDT MON AUG 31 2015

NOTE: "FAIR" INDICATES FEW OR NO CLOUDS BELOW 12,000 FEET WITH NO
SIGNIFICANT WEATHER AND/OR OBSTRUCTIONS TO VISIBILITY.

* - THESE STATIONS ARE NOT NWS STATIONS...THUS NOT UNDER NWS
QUALITY CONTROL.  THEY ALSO DO NOT REPORT WEATHER SUCH
AS PRECIPITATION OR FOG.

IAZ001>003-012>014-020>022-031>034-043>046-310800-
   NORTHWEST IOWA

CITY           SKY/WX    TMP DP  RH WIND       PRES   REMARKS
CARROLL *      FOG       61  61 100 CALM      29.98F VSB 0
CHEROKEE *     PTCLDY    64  64 100 S5        29.96S FOG
DENISON *      CLOUDY    66  64  94 SE7       29.95F FOG
LE MARS *      CLEAR     66  66 100 S8        29.94F
ORANGE CITY *  CLEAR     64  64 100 S8        29.94F FOG
SHELDON *      MOCLDY    64  64 100 S7        29.93S FOG
SPENCER        PTCLDY    63  60  90 S3        29.96S FOG
STORM LAKE *   CLEAR     64  64 100 S9        29.98S FOG
$$

IAZ055>058-069>071-079>083-090>094-310800-
   SOUTHWEST IOWA

CITY           SKY/WX    TMP DP  RH WIND       PRES   REMARKS
ATLANTIC *     CLOUDY    61  61 100 CALM      29.98F FOG
AUDUBON *      FOG       59  57  94 CALM      29.99F VSB 1/4
CLARINDA *     PTCLDY    64  64 100 CALM      29.99S FOG
COUNCIL BLFS * CLEAR     66  66 100 S3        29.97F
CRESTON *      CLEAR     66  64  94 SE6       30.00F FOG
HARLAN  *      FOG       59 N/A N/A CALM      30.01F VSB 1/4
LAMONI         CLEAR     71  67  87 E5        29.99F
RED OAK *      CLEAR     63  63 100 CALM      29.97F FOG
SHENANDOAH *   PTCLDY    64  64 100 CALM      29.97F FOG
$$

IAZ047>049-059>061-072>074-084-310800-
   CENTRAL IOWA

CITY           SKY/WX    TMP DP  RH WIND       PRES   REMARKS
AMES           FOG       63  63 100 CALM      29.99F VSB 1/4
ANKENY *       FOG       63  63 100 CALM      29.99F VSB<1/4
CHARITON *     CLOUDY    66  66 100 SE5       29.99F FOG
DES MOINES     CLEAR     69  66  90 SE8       29.98F
GRINNELL*      CLEAR     64  63  94 E3        30.01F FOG
KNOXVILLE *    CLEAR     66  66 100 E5        29.99F
MARSHALLTOWN   FOG       61  60  97 SE6       30.00F VSB 1/4
PELLA *        CLEAR     66  66 100 CALM      30.01F FOG
PERRY *        FOG       63  63 100 SE3       29.99S VSB 1/4
$$

IAZ004>006-015-016-023>025-035-036-310800-
   NORTH CENTRAL IOWA

CITY           SKY/WX    TMP DP  RH WIND       PRES   REMARKS
ALGONA *       MOCLDY    64  64 100 S10       29.98S FOG
CLARION *      CLOUDY    64  64 100 S9        29.99F FOG
ESTHERVILLE    MOCLDY    62  62 100 S9        29.96R FOG
FORT DODGE *   CLEAR     64  63  94 S5        29.99F
MASON CITY     FOG       58  58 100 S5        30.01S VSB 1/4
FOREST CITY *  FOG       57  57 100 CALM      29.99S VSB 1
IOWA FALLS *     N/A     63  63 100 SE5       30.01F FOG
$$

IAZ007>011-017>019-026>030-037>042-050>054-066-310800-
   NORTHEAST IOWA

CITY           SKY/WX    TMP DP  RH WIND       PRES   REMARKS
CEDAR RAPIDS   CLEAR     61  61 100 SE3       30.01S FOG
CHARLES CITY * CLOUDY    63  63 100 S6        30.02S FOG
CLINTON *        N/A     61  59  94 E3        30.05S VSB 1/2
DECORAH *      CLOUDY    63  63 100 S7        30.01S FOG
DUBUQUE        PTCLDY    60  59  96 CALM      30.04R FOG
MONTICELLO *   FOG       57  57 100 CALM      30.02S VSB 1/2
OELWEIN *      CLEAR     59  59 100 SE3       30.03S FOG
WATERLOO       CLEAR     62  62 100 S3        30.01S
$$

IAZ064-065-067-068-078-310800-
   EAST CENTRAL IOWA

CITY           SKY/WX    TMP DP  RH WIND       PRES   REMARKS
DAVENPORT      CLEAR     61  60  97 E3        30.02F
IOWA CITY      CLEAR     63  62  97 CALM      30.02F FOG
MT. PLEASANT * CLEAR     66  63  88 CALM      30.00F FOG
MUSCATINE *    CLEAR     63  61  94 CALM      30.01F
QUAD CITIES    CLEAR     61  60  97 CALM      30.01F FOG
$$

IAZ062-063-075>077-085>089-095>099-310800-
   SOUTHEAST IOWA

CITY           SKY/WX    TMP DP  RH WIND       PRES   REMARKS
BURLINGTON     CLEAR     67  66  97 CALM      30.01S
FAIRFIELD *    CLEAR     64  63  94 E5        30.00F FOG
FORT MADISON * FOG       64  64 100 CALM      30.02S VSB 1/2
KEOKUK *       CLEAR     70  68  94 SE6       30.00S
OSKALOOSA *      N/A     64  64 100 E5        30.01S FOG
CENTERVILLE *  CLEAR     66  66 100 E5        30.01F
OTTUMWA        CLEAR     64  64 100 SE5       29.99F FOG
WASHINGTON *     N/A    N/A N/A N/A MISG        N/A
$$

ABBREVIATIONS USED IN REMARKS
   TC - TEMPERATURES IN CELSIUS
  WCI - WIND CHILL INDEX
   HX - HEAT INDEX
  VSB - VISIBILITY
$$




USA.gov is the U.S. government's official web portal to all federal, state and local government web resources and services.